DirecTV 7S

operational
NORAD ID: 28238 Int'l Des: 2004-016 Owner: DTV Country: US
HEOCIRCULAR
追跡 地上

DirecTV 7Sについて

説明を読み込み中...

リアルタイム位置

3D地球を読み込み中...

次回通過

高度履歴

Altitude vs Time

uPlot chart will show altitude changes over time

軌道要素

1 28238U 04016A 26072.32296418 -.00000095 00000-0 00000-0 0 9991
2 28238 4.8825 76.1078 0002313 120.0051 283.3965 0.98919473 79854
Epoch: Mar 13, 2026 • Age: 31 hours

現在のステータス

高度 36170.2 km
速度 3.06 km/s
衛星直下点 1.95°N, 172.46°W
打ち上げ日 May 4, 2004
運用期間 21.8 years
タイプ other

技術仕様

分類 Payload
質量 5483.00 kg
乾燥質量 2500.00 kg
総質量 5483.00 kg
長さ 5.60 m
直径 2.80 m
スパン 31.00 m
形状 Box + 2 Pan
製造者 LOR
バスタイプ SSL-1300
フェーズステータス Renamed
所有者/国 DTV/US

大規模コンステレーション

Loading constellations...